"read_dt","SO2 (ppb)","flags","PMT voltage (V)","lamp voltage (V)","lamp intensity (Hz)","internal temp (C)","react chamber temp (C)","sample flow (l/min)","pres (mmHg)","SO2 bkg (ppb)","SO2 coefficient"
2014-01-25 00:00:00,2512E-4,5C000000,-0724,0979,10532,025.9,045.3,0.394,736.0,01.18,0.508
2014-01-25 00:01:00,2652E-4,5C000000,-0724,0978,10870,025.9,045.3,0.395,736.0,01.18,0.508
2014-01-25 00:02:00,3720E-4,5C000000,-0724,0978,10737,025.9,045.3,0.394,736.1,01.18,0.508
2014-01-25 00:03:00,3102E-4,5C000000,-0724,0978,10796,025.9,045.3,0.395,736.1,01.18,0.508
2014-01-25 00:04:00,3881E-4,5C000000,-0724,0978,10764,025.9,045.3,0.394,736.1,01.18,0.508
2014-01-25 00:05:00,2712E-4,5C000000,-0724,0978,10627,025.9,045.3,0.395,736.1,01.18,0.508
2014-01-25 00:06:00,2718E-4,5C000000,-0724,0978,10758,025.9,045.3,0.394,736.1,01.18,0.508
2014-01-25 00:07:00,2749E-4,5C000000,-0724,0978,10837,025.9,045.3,0.395,736.1,01.18,0.508
2014-01-25 00:08:00,2392E-4,5C000000,-0724,0977,10738,025.9,045.3,0.394,736.1,01.18,0.508
2014-01-25 00:09:00,2946E-4,5C000000,-0724,0979,10735,025.9,045.3,0.395,736.1,01.18,0.508
2014-01-25 00:10:00,3256E-4,5C000000,-0724,0978,10701,025.9,045.2,0.394,736.0,01.18,0.508
2014-01-25 00:11:00,2717E-4,5C000000,-0724,0977,10742,025.9,045.3,0.395,736.0,01.18,0.508
2014-01-25 00:12:00,3106E-4,5C000000,-0724,0979,10792,025.9,045.3,0.394,736.0,01.18,0.508
2014-01-25 00:13:00,2510E-4,5C000000,-0724,0977,10735,025.9,045.2,0.394,736.1,01.18,0.508
2014-01-25 00:14:00,2438E-4,5C000000,-0724,0978,10832,025.9,045.3,0.394,736.0,01.18,0.508
2014-01-25 00:15:00,3952E-4,5C000000,-0724,0978,10875,025.9,045.3,0.394,736.0,01.18,0.508
2014-01-25 00:16:00,2570E-4,5C000000,-0724,0978,10669,025.9,045.3,0.394,736.1,01.18,0.508
2014-01-25 00:17:00,2769E-4,5C000000,-0724,0978,10854,025.9,045.3,0.394,736.0,01.18,0.508
2014-01-25 00:18:00,2572E-4,5C000000,-0724,0978,10623,025.9,045.3,0.395,736.0,01.18,0.508
2014-01-25 00:19:00,3147E-4,5C000000,-0724,0978,10904,025.9,045.3,0.394,736.0,01.18,0.508
2014-01-25 00:20:00,2615E-4,5C000000,-0724,0978,10669,025.9,045.2,0.395,736.0,01.18,0.508
2014-01-25 00:21:00,3319E-4,5C000000,-0724,0977,10817,025.9,045.2,0.394,736.1,01.18,0.508
2014-01-25 00:22:00,2822E-4,5C000000,-0724,0979,10837,025.9,045.2,0.395,736.0,01.18,0.508
2014-01-25 00:23:00,2938E-4,5C000000,-0724,0978,10802,025.9,045.3,0.394,736.1,01.18,0.508
2014-01-25 00:24:00,3504E-4,5C000000,-0724,0979,10710,025.9,045.3,0.394,736.1,01.18,0.508
2014-01-25 00:25:00,4230E-4,5C000000,-0724,0978,10720,025.9,045.3,0.394,736.1,01.18,0.508
2014-01-25 00:26:00,3241E-4,5C000000,-0724,0977,10580,025.9,045.3,0.394,736.0,01.18,0.508
2014-01-25 00:27:00,2848E-4,5C000000,-0724,0978,10704,025.9,045.2,0.395,736.0,01.18,0.508
2014-01-25 00:28:00,3226E-4,5C000000,-0724,0978,10760,025.9,045.2,0.394,736.0,01.18,0.508
2014-01-25 00:29:00,3741E-4,5C000000,-0724,0978,10750,025.9,045.2,0.395,736.0,01.18,0.508
2014-01-25 00:30:00,3558E-4,5C000000,-0724,0979,10799,025.9,045.2,0.394,736.0,01.18,0.508
2014-01-25 00:31:00,3289E-4,5C000000,-0724,0978,10709,025.9,045.3,0.395,736.0,01.18,0.508
2014-01-25 00:32:00,3810E-4,5C000000,-0724,0978,10751,025.9,045.3,0.394,736.0,01.18,0.508
2014-01-25 00:33:00,3572E-4,5C000000,-0724,0978,10604,025.9,045.3,0.394,735.9,01.18,0.508
2014-01-25 00:34:00,2186E-4,5C000000,-0724,0978,10779,025.9,045.2,0.394,736.0,01.18,0.508
2014-01-25 00:35:00,3800E-4,5C000000,-0724,0978,10642,025.9,045.2,0.394,735.9,01.18,0.508
2014-01-25 00:36:00,3602E-4,5C000000,-0724,0977,10854,025.9,045.2,0.394,736.0,01.18,0.508
2014-01-25 00:37:00,3773E-4,5C000000,-0724,0978,10855,026.0,045.3,0.394,736.0,01.18,0.508
2014-01-25 00:38:00,3693E-4,5C000000,-0724,0978,10715,026.0,045.3,0.394,736.0,01.18,0.508
2014-01-25 00:39:00,2875E-4,5C000000,-0724,0978,10836,025.9,045.3,0.394,735.9,01.18,0.508
2014-01-25 00:40:00,2868E-4,5C000000,-0724,0979,10746,026.0,045.2,0.394,735.9,01.18,0.508
2014-01-25 00:41:00,3284E-4,5C000000,-0724,0979,10874,025.9,045.3,0.394,735.9,01.18,0.508
2014-01-25 00:42:00,2625E-4,5C000000,-0724,0978,10865,025.9,045.2,0.394,735.9,01.18,0.508
2014-01-25 00:43:00,4159E-4,5C000000,-0724,0978,10721,025.9,045.3,0.394,735.9,01.18,0.508
2014-01-25 00:44:00,3440E-4,5C000000,-0724,0978,10725,025.9,045.3,0.394,735.9,01.18,0.508
2014-01-25 00:45:00,3641E-4,5C000000,-0724,0979,10626,025.9,045.3,0.394,735.9,01.18,0.508
2014-01-25 00:46:00,2431E-4,5C000000,-0724,0978,10850,025.9,045.2,0.394,735.9,01.18,0.508
2014-01-25 00:47:00,3236E-4,5C000000,-0724,0979,10542,026.0,045.2,0.394,735.8,01.18,0.508
2014-01-25 00:48:00,2869E-4,5C000000,-0724,0978,10702,026.0,045.3,0.394,735.7,01.18,0.508
2014-01-25 00:49:00,3011E-4,5C000000,-0724,0978,10650,026.0,045.3,0.394,735.9,01.18,0.508
2014-01-25 00:50:00,1907E-4,5C000000,-0724,0979,10780,026.0,045.2,0.394,735.8,01.18,0.508
2014-01-25 00:51:00,3126E-4,5C000000,-0724,0978,10690,026.0,045.3,0.394,735.8,01.18,0.508
2014-01-25 00:52:00,3254E-4,5C000000,-0724,0978,10803,026.0,045.3,0.394,735.8,01.18,0.508
2014-01-25 00:53:00,3739E-4,5C000000,-0724,0979,10566,025.9,045.3,0.394,735.7,01.18,0.508
2014-01-25 00:54:00,3349E-4,5C000000,-0724,0978,10666,026.0,045.3,0.394,735.8,01.18,0.508
2014-01-25 00:55:00,4003E-4,5C000000,-0724,0978,10681,026.0,045.3,0.394,735.7,01.18,0.508
2014-01-25 00:56:00,3221E-4,5C000000,-0724,0978,10569,026.0,045.3,0.394,735.7,01.18,0.508
2014-01-25 00:57:00,3126E-4,5C000000,-0724,0978,10712,025.9,045.3,0.394,735.7,01.18,0.508
2014-01-25 00:58:00,3313E-4,5C000000,-0724,0978,10827,026.0,045.3,0.394,735.8,01.18,0.508
2014-01-25 00:59:00,3646E-4,5C000000,-0724,0978,10649,025.9,045.2,0.394,735.8,01.18,0.508
2014-01-25 01:00:00,3396E-4,5C000000,-0724,0978,10742,025.9,045.3,0.394,735.8,01.18,0.508
2014-01-25 01:01:00,2018E-4,5C000000,-0724,0978,10659,025.9,045.3,0.394,735.9,01.18,0.508
2014-01-25 01:02:00,2676E-4,5C000000,-0724,0978,10707,025.9,045.3,0.394,735.8,01.18,0.508
2014-01-25 01:03:00,4404E-4,5C000000,-0724,0978,10811,026.0,045.3,0.394,735.8,01.18,0.508
2014-01-25 01:04:00,3473E-4,5C000000,-0724,0978,10679,026.0,045.3,0.394,735.9,01.18,0.508
2014-01-25 01:05:00,3966E-4,5C000000,-0724,0978,10714,026.0,045.3,0.394,735.8,01.18,0.508
2014-01-25 01:06:00,2802E-4,5C000000,-0724,0978,10733,025.9,045.2,0.394,735.8,01.18,0.508
2014-01-25 01:07:00,2576E-4,5C000000,-0724,0979,10777,025.9,045.3,0.394,735.8,01.18,0.508
2014-01-25 01:08:00,2341E-4,5C000000,-0724,0978,10793,025.9,045.3,0.394,735.9,01.18,0.508
2014-01-25 01:09:00,2788E-4,5C000000,-0724,0978,10686,025.9,045.3,0.394,735.9,01.18,0.508
2014-01-25 01:10:00,2751E-4,5C000000,-0724,0979,10725,025.9,045.3,0.394,735.8,01.18,0.508
2014-01-25 01:11:00,3516E-4,5C000000,-0724,0978,10842,026.0,045.3,0.394,735.8,01.18,0.508
2014-01-25 01:12:00,2657E-4,5C000000,-0724,0978,10732,026.0,045.2,0.394,735.8,01.18,0.508
2014-01-25 01:13:00,3509E-4,5C000000,-0724,0978,10756,026.0,045.3,0.394,735.9,01.18,0.508
2014-01-25 01:14:00,4064E-4,5C000000,-0724,0978,10739,026.0,045.3,0.394,735.9,01.18,0.508
2014-01-25 01:15:00,3567E-4,5C000000,-0724,0978,10808,026.0,045.3,0.394,735.9,01.18,0.508
2014-01-25 01:16:00,2513E-4,5C000000,-0724,0978,10735,026.0,045.2,0.394,735.8,01.18,0.508
2014-01-25 01:17:00,2957E-4,5C000000,-0724,0979,10799,026.0,045.2,0.394,735.9,01.18,0.508
2014-01-25 01:18:00,3573E-4,5C000000,-0724,0979,10885,026.0,045.3,0.394,735.8,01.18,0.508
2014-01-25 01:19:00,2548E-4,5C000000,-0724,0978,10712,026.0,045.2,0.394,735.8,01.18,0.508
2014-01-25 01:20:00,3728E-4,5C000000,-0724,0978,10585,026.0,045.3,0.394,735.9,01.18,0.508
2014-01-25 01:21:00,2904E-4,5C000000,-0724,0978,10861,026.0,045.3,0.394,735.8,01.18,0.508
2014-01-25 01:22:00,2575E-4,5C000000,-0724,0978,10904,026.0,045.3,0.394,735.8,01.18,0.508
2014-01-25 01:23:00,2361E-4,5C000000,-0724,0979,10772,026.0,045.3,0.394,735.8,01.18,0.508
2014-01-25 01:24:00,3928E-4,5C000000,-0724,0979,10786,026.0,045.2,0.394,735.8,01.18,0.508
2014-01-25 01:25:00,3064E-4,5C000000,-0724,0978,10767,026.0,045.2,0.394,735.8,01.18,0.508
2014-01-25 01:26:00,3119E-4,5C000000,-0724,0978,10695,026.0,045.3,0.394,735.8,01.18,0.508
2014-01-25 01:27:00,2991E-4,5C000000,-0724,0977,10686,026.0,045.2,0.394,735.8,01.18,0.508
2014-01-25 01:28:00,2791E-4,5C000000,-0724,0979,10657,026.0,045.2,0.394,735.8,01.18,0.508
2014-01-25 01:29:00,2576E-4,5C000000,-0724,0979,10864,026.0,045.3,0.394,735.7,01.18,0.508
2014-01-25 01:30:00,2961E-4,5C000000,-0724,0979,10680,026.0,045.3,0.394,735.8,01.18,0.508
2014-01-25 01:31:00,3201E-4,5C000000,-0724,0979,10763,026.0,045.3,0.394,735.8,01.18,0.508
2014-01-25 01:32:00,3218E-4,5C000000,-0724,0979,10848,026.0,045.3,0.394,735.9,01.18,0.508
2014-01-25 01:33:00,2899E-4,5C000000,-0724,0978,10781,026.0,045.3,0.394,735.9,01.18,0.508
2014-01-25 01:34:00,2598E-4,5C000000,-0724,0978,10801,026.0,045.3,0.394,735.8,01.18,0.508
2014-01-25 01:35:00,3142E-4,5C000000,-0724,0978,10624,026.0,045.3,0.394,735.8,01.18,0.508
2014-01-25 01:36:00,3473E-4,5C000000,-0724,0978,10699,026.0,045.3,0.394,735.7,01.18,0.508
2014-01-25 01:37:00,2725E-4,5C000000,-0724,0978,10656,026.0,045.3,0.394,735.9,01.18,0.508
2014-01-25 01:38:00,2004E-4,5C000000,-0724,0978,10731,026.0,045.3,0.394,735.9,01.18,0.508
2014-01-25 01:39:00,3200E-4,5C000000,-0724,0977,10798,026.0,045.3,0.394,735.8,01.18,0.508
2014-01-25 01:40:00,2295E-4,5C000000,-0724,0979,10724,026.0,045.3,0.394,735.8,01.18,0.508
2014-01-25 01:41:00,3304E-4,5C000000,-0724,0979,10489,026.0,045.3,0.394,735.8,01.18,0.508
2014-01-25 01:42:00,3228E-4,5C000000,-0724,0978,10696,026.0,045.3,0.394,735.9,01.18,0.508
2014-01-25 01:43:00,3243E-4,5C000000,-0724,0977,10802,026.0,045.2,0.394,735.8,01.18,0.508
2014-01-25 01:44:00,2385E-4,5C000000,-0724,0978,10880,025.9,045.3,0.394,735.8,01.18,0.508
2014-01-25 01:45:00,2504E-4,5C000000,-0724,0978,10591,026.0,045.3,0.394,735.8,01.18,0.508
2014-01-25 01:46:00,3002E-4,5C000000,-0724,0979,10785,026.0,045.3,0.394,735.8,01.18,0.508
2014-01-25 01:47:00,4183E-4,5C000000,-0724,0979,10736,026.0,045.3,0.394,735.8,01.18,0.508
2014-01-25 01:48:00,3553E-4,5C000000,-0724,0978,10804,026.0,045.3,0.394,735.8,01.18,0.508
2014-01-25 01:49:00,2690E-4,5C000000,-0724,0978,10777,026.0,045.3,0.394,735.8,01.18,0.508
2014-01-25 01:50:00,3222E-4,5C000000,-0724,0979,10737,025.9,045.3,0.394,735.7,01.18,0.508
2014-01-25 01:51:00,3514E-4,5C000000,-0724,0978,10866,026.0,045.3,0.394,735.6,01.18,0.508
2014-01-25 01:52:00,2605E-4,5C000000,-0724,0978,10765,026.0,045.2,0.394,735.7,01.18,0.508
2014-01-25 01:53:00,1840E-4,5C000000,-0724,0979,10740,026.0,045.3,0.394,735.6,01.18,0.508
2014-01-25 01:54:00,2709E-4,5C000000,-0724,0978,10733,026.0,045.2,0.394,735.7,01.18,0.508
2014-01-25 01:55:00,3483E-4,5C000000,-0724,0978,10716,026.0,045.2,0.394,735.7,01.18,0.508
2014-01-25 01:56:00,3298E-4,5C000000,-0724,0979,10750,026.0,045.3,0.394,735.8,01.18,0.508
2014-01-25 01:57:00,2845E-4,5C000000,-0724,0978,10810,026.0,045.3,0.394,735.8,01.18,0.508
2014-01-25 01:58:00,3151E-4,5C000000,-0724,0978,10794,026.0,045.3,0.394,735.8,01.18,0.508
2014-01-25 01:59:00,3848E-4,5C000000,-0724,0979,10846,026.0,045.3,0.394,735.8,01.18,0.508
2014-01-25 02:00:00,3035E-4,5C000000,-0724,0978,10819,026.0,045.3,0.394,735.7,01.18,0.508
2014-01-25 02:01:00,3688E-4,5C000000,-0724,0978,10856,026.0,045.3,0.394,735.8,01.18,0.508
2014-01-25 02:02:00,3182E-4,5C000000,-0724,0977,10724,026.0,045.3,0.394,735.7,01.18,0.508
2014-01-25 02:03:00,3443E-4,5C000000,-0724,0979,10723,026.0,045.3,0.394,735.7,01.18,0.508
2014-01-25 02:04:00,3262E-4,5C000000,-0724,0978,10746,026.0,045.3,0.394,735.7,01.18,0.508
2014-01-25 02:05:00,1908E-4,5C000000,-0724,0977,10757,026.0,045.3,0.394,735.7,01.18,0.508
2014-01-25 02:06:00,3423E-4,5C000000,-0724,0979,10824,026.0,045.3,0.394,735.8,01.18,0.508
2014-01-25 02:07:00,3038E-4,5C000000,-0724,0978,10775,026.0,045.3,0.394,735.8,01.18,0.508
2014-01-25 02:08:00,3663E-4,5C000000,-0724,0979,10765,025.9,045.3,0.394,735.7,01.18,0.508
2014-01-25 02:09:00,2128E-4,5C000000,-0724,0979,10832,026.0,045.3,0.394,735.8,01.18,0.508
2014-01-25 02:10:00,2049E-4,5C000000,-0724,0979,10769,026.0,045.3,0.394,735.8,01.18,0.508
2014-01-25 02:11:00,3297E-4,5C000000,-0724,0978,10816,026.0,045.3,0.394,735.8,01.18,0.508
2014-01-25 02:12:00,1869E-4,5C000000,-0724,0978,10887,026.0,045.2,0.394,735.8,01.18,0.508
2014-01-25 02:13:00,2392E-4,5C000000,-0724,0978,10556,026.0,045.3,0.394,735.8,01.18,0.508
2014-01-25 02:14:00,3541E-4,5C000000,-0724,0978,10807,026.0,045.3,0.394,735.9,01.18,0.508
2014-01-25 02:15:00,2646E-4,5C000000,-0724,0978,10753,026.0,045.2,0.394,735.8,01.18,0.508
2014-01-25 02:16:00,4099E-4,5C000000,-0724,0978,10713,026.0,045.2,0.394,735.8,01.18,0.508
2014-01-25 02:17:00,4097E-4,5C000000,-0724,0978,10665,026.0,045.2,0.394,735.8,01.18,0.508
2014-01-25 02:18:00,3120E-4,5C000000,-0724,0979,10693,026.0,045.3,0.394,735.8,01.18,0.508
2014-01-25 02:19:00,2320E-4,5C000000,-0724,0978,10578,026.0,045.3,0.394,735.8,01.18,0.508
2014-01-25 02:20:00,2668E-4,5C000000,-0724,0978,10670,026.0,045.3,0.394,735.8,01.18,0.508
2014-01-25 02:21:00,2954E-4,5C000000,-0724,0979,10552,026.0,045.3,0.394,735.8,01.18,0.508
2014-01-25 02:22:00,2500E-4,5C000000,-0724,0978,10765,026.0,045.2,0.394,735.8,01.18,0.508
2014-01-25 02:23:00,2211E-4,5C000000,-0724,0978,10745,026.0,045.2,0.394,735.7,01.18,0.508
2014-01-25 02:24:00,2393E-4,5C000000,-0724,0979,10766,026.0,045.2,0.394,735.7,01.18,0.508
2014-01-25 02:25:00,3010E-4,5C000000,-0724,0979,10723,026.0,045.3,0.394,735.6,01.18,0.508
2014-01-25 02:26:00,2914E-4,5C000000,-0724,0978,10727,026.0,045.2,0.394,735.7,01.18,0.508
2014-01-25 02:27:00,2743E-4,5C000000,-0724,0978,10606,026.0,045.2,0.394,735.7,01.18,0.508
2014-01-25 02:28:00,2732E-4,5C000000,-0724,0979,10793,026.0,045.3,0.394,735.7,01.18,0.508
2014-01-25 02:29:00,2606E-4,5C000000,-0724,0979,10728,026.0,045.3,0.394,735.7,01.18,0.508
2014-01-25 02:30:00,3161E-4,5C000000,-0724,0978,10834,026.0,045.3,0.394,735.5,01.18,0.508
2014-01-25 02:31:00,2565E-4,5C000000,-0724,0978,10851,026.0,045.2,0.394,735.6,01.18,0.508
2014-01-25 02:32:00,2548E-4,5C000000,-0724,0979,10757,026.0,045.2,0.394,735.6,01.18,0.508
2014-01-25 02:33:00,2615E-4,5C000000,-0724,0979,10522,026.0,045.2,0.394,735.5,01.18,0.508
2014-01-25 02:34:00,2617E-4,5C000000,-0724,0979,10800,026.0,045.2,0.394,735.5,01.18,0.508
2014-01-25 02:35:00,2692E-4,5C000000,-0724,0979,10733,026.0,045.3,0.394,735.5,01.18,0.508
2014-01-25 02:36:00,3592E-4,5C000000,-0724,0978,10739,026.0,045.3,0.393,735.5,01.18,0.508
2014-01-25 02:37:00,3042E-4,5C000000,-0724,0979,10821,026.0,045.3,0.394,735.5,01.18,0.508
2014-01-25 02:38:00,2725E-4,5C000000,-0724,0979,10719,026.0,045.3,0.394,735.5,01.18,0.508
2014-01-25 02:39:00,3727E-4,5C000000,-0724,0978,10675,026.0,045.3,0.394,735.6,01.18,0.508
2014-01-25 02:40:00,3676E-4,5C000000,-0724,0978,10604,026.0,045.3,0.394,735.5,01.18,0.508
2014-01-25 02:41:00,2469E-4,5C000000,-0724,0978,10798,026.0,045.3,0.394,735.6,01.18,0.508
2014-01-25 02:42:00,2993E-4,5C000000,-0724,0979,10642,026.0,045.3,0.394,735.6,01.18,0.508
2014-01-25 02:43:00,3030E-4,5C000000,-0724,0978,10812,026.0,045.2,0.394,735.6,01.18,0.508
2014-01-25 02:44:00,3009E-4,5C000000,-0724,0977,10716,026.0,045.3,0.394,735.5,01.18,0.508
2014-01-25 02:45:00,2487E-4,5C000000,-0724,0979,10775,026.0,045.3,0.394,735.6,01.18,0.508
2014-01-25 02:46:00,3395E-4,5C000000,-0724,0979,10553,026.0,045.3,0.394,735.5,01.18,0.508
2014-01-25 02:47:00,3382E-4,5C000000,-0724,0979,10645,026.0,045.2,0.394,735.4,01.18,0.508
2014-01-25 02:48:00,3000E-4,5C000000,-0724,0979,10606,026.0,045.3,0.394,735.5,01.18,0.508
2014-01-25 02:49:00,2910E-4,5C000000,-0724,0979,10757,026.0,045.2,0.394,735.5,01.18,0.508
2014-01-25 02:50:00,2783E-4,5C000000,-0724,0978,10753,026.0,045.2,0.394,735.5,01.18,0.508
2014-01-25 02:51:00,2944E-4,5C000000,-0724,0978,10697,026.0,045.2,0.394,735.6,01.18,0.508
2014-01-25 02:52:00,4237E-4,5C000000,-0724,0979,10796,026.0,045.2,0.394,735.4,01.18,0.508
2014-01-25 02:53:00,2831E-4,5C000000,-0724,0978,10721,025.9,045.3,0.394,735.4,01.18,0.508
2014-01-25 02:54:00,4028E-4,5C000000,-0724,0979,10714,026.0,045.2,0.394,735.4,01.18,0.508
2014-01-25 02:55:00,3454E-4,5C000000,-0724,0978,10786,025.9,045.3,0.394,735.4,01.18,0.508
2014-01-25 02:56:00,2763E-4,5C000000,-0724,0979,10694,025.9,045.3,0.394,735.3,01.18,0.508
2014-01-25 02:57:00,3269E-4,5C000000,-0724,0979,10569,025.9,045.2,0.394,735.2,01.18,0.508
2014-01-25 02:58:00,3257E-4,5C000000,-0724,0978,10850,025.9,045.3,0.394,735.2,01.18,0.508
2014-01-25 02:59:00,4115E-4,5C000000,-0724,0978,10764,025.9,045.3,0.394,735.3,01.18,0.508
2014-01-25 03:00:00,2452E-4,5C000000,-0724,0979,10796,025.9,045.3,0.394,735.4,01.18,0.508
2014-01-25 03:01:00,3216E-4,5C000000,-0724,0978,10703,025.9,045.3,0.394,735.5,01.18,0.508
2014-01-25 03:02:00,2865E-4,5C000000,-0724,0978,10719,025.9,045.2,0.394,735.4,01.18,0.508
2014-01-25 03:03:00,3526E-4,5C000000,-0724,0978,10692,025.9,045.3,0.394,735.5,01.18,0.508
2014-01-25 03:04:00,2537E-4,5C000000,-0724,0978,10695,025.9,045.2,0.394,735.4,01.18,0.508
2014-01-25 03:05:00,2424E-4,5C000000,-0724,0978,10704,025.9,045.3,0.394,735.4,01.18,0.508
2014-01-25 03:06:00,3275E-4,5C000000,-0724,0979,10477,025.9,045.2,0.394,735.5,01.18,0.508
2014-01-25 03:07:00,2904E-4,5C000000,-0724,0978,10743,025.9,045.3,0.394,735.3,01.18,0.508
2014-01-25 03:08:00,3617E-4,5C000000,-0724,0978,10702,025.9,045.3,0.394,735.5,01.18,0.508
2014-01-25 03:09:00,2419E-4,5C000000,-0724,0978,10798,025.9,045.3,0.394,735.5,01.18,0.508
2014-01-25 03:10:00,3266E-4,5C000000,-0724,0979,10675,025.9,045.2,0.394,735.4,01.18,0.508
2014-01-25 03:11:00,3141E-4,5C000000,-0724,0978,10776,025.9,045.3,0.394,735.4,01.18,0.508
2014-01-25 03:12:00,2179E-4,5C000000,-0724,0978,10546,025.9,045.3,0.394,735.4,01.18,0.508
2014-01-25 03:13:00,2927E-4,5C000000,-0724,0978,10743,025.9,045.2,0.394,735.4,01.18,0.508
2014-01-25 03:14:00,2866E-4,5C000000,-0724,0978,10833,025.9,045.3,0.394,735.5,01.18,0.508
2014-01-25 03:15:00,2603E-4,5C000000,-0724,0977,10752,025.9,045.3,0.395,735.5,01.18,0.508
2014-01-25 03:16:00,3596E-4,5C000000,-0724,0979,10815,025.9,045.2,0.394,735.5,01.18,0.508
2014-01-25 03:17:00,3532E-4,5C000000,-0724,0979,10731,025.9,045.2,0.394,735.6,01.18,0.508
2014-01-25 03:18:00,3154E-4,5C000000,-0724,0979,10843,025.9,045.3,0.394,735.5,01.18,0.508
2014-01-25 03:19:00,2777E-4,5C000000,-0724,0979,10635,025.9,045.2,0.394,735.4,01.18,0.508
2014-01-25 03:20:00,1911E-4,5C000000,-0724,0979,10859,025.9,045.2,0.394,735.6,01.18,0.508
2014-01-25 03:21:00,3069E-4,5C000000,-0724,0979,10586,025.9,045.3,0.394,735.5,01.18,0.508
2014-01-25 03:22:00,2449E-4,5C000000,-0724,0979,10720,025.9,045.3,0.394,735.5,01.18,0.508
2014-01-25 03:23:00,3030E-4,5C000000,-0724,0979,10875,025.9,045.2,0.394,735.5,01.18,0.508
2014-01-25 03:24:00,2598E-4,5C000000,-0724,0979,10872,025.9,045.3,0.394,735.6,01.18,0.508
2014-01-25 03:25:00,3504E-4,5C000000,-0724,0978,10797,025.9,045.3,0.394,735.7,01.18,0.508
2014-01-25 03:26:00,3347E-4,5C000000,-0724,0979,10885,025.9,045.2,0.394,735.7,01.18,0.508
2014-01-25 03:27:00,2905E-4,5C000000,-0724,0978,10665,025.8,045.2,0.394,735.6,01.18,0.508
2014-01-25 03:28:00,1953E-4,5C000000,-0724,0978,10798,025.9,045.2,0.394,735.7,01.18,0.508
2014-01-25 03:29:00,2990E-4,5C000000,-0724,0978,10830,025.9,045.2,0.394,735.7,01.18,0.508
2014-01-25 03:30:00,2698E-4,5C000000,-0724,0978,10757,025.9,045.2,0.394,735.6,01.18,0.508
2014-01-25 03:31:00,2829E-4,5C000000,-0724,0978,10780,025.9,045.3,0.394,735.6,01.18,0.508
2014-01-25 03:32:00,3229E-4,5C000000,-0724,0979,10658,025.9,045.3,0.395,735.6,01.18,0.508
2014-01-25 03:33:00,3563E-4,5C000000,-0724,0978,10746,025.8,045.3,0.394,735.7,01.18,0.508
2014-01-25 03:34:00,3361E-4,5C000000,-0724,0978,10591,025.8,045.3,0.395,735.6,01.18,0.508
2014-01-25 03:35:00,3112E-4,5C000000,-0724,0979,10826,025.8,045.3,0.394,735.6,01.18,0.508
2014-01-25 03:36:00,3217E-4,5C000000,-0724,0978,10852,025.8,045.3,0.395,735.7,01.18,0.508
2014-01-25 03:37:00,2626E-4,5C000000,-0724,0979,10747,025.8,045.3,0.394,735.8,01.18,0.508
2014-01-25 03:38:00,3389E-4,5C000000,-0724,0977,10763,025.8,045.3,0.395,735.7,01.18,0.508
2014-01-25 03:39:00,3444E-4,5C000000,-0724,0978,10796,025.8,045.3,0.394,735.7,01.18,0.508
2014-01-25 03:40:00,2655E-4,5C000000,-0724,0978,10801,025.8,045.2,0.395,735.6,01.18,0.508
2014-01-25 03:41:00,3140E-4,5C000000,-0724,0978,10776,025.8,045.2,0.394,735.6,01.18,0.508
2014-01-25 03:42:00,2778E-4,5C000000,-0724,0980,10743,025.8,045.3,0.395,735.6,01.18,0.508
2014-01-25 03:43:00,2741E-4,5C000000,-0724,0978,10716,025.8,045.2,0.394,735.8,01.18,0.508
2014-01-25 03:44:00,3104E-4,5C000000,-0724,0979,10679,025.8,045.2,0.394,735.7,01.18,0.508
2014-01-25 03:45:00,3451E-4,5C000000,-0724,0978,10753,025.8,045.2,0.394,735.8,01.18,0.508
2014-01-25 03:46:00,3114E-4,5C000000,-0724,0978,10744,025.8,045.3,0.394,735.8,01.18,0.508
2014-01-25 03:47:00,3284E-4,5C000000,-0724,0979,10691,025.8,045.2,0.395,735.8,01.18,0.508
2014-01-25 03:48:00,3015E-4,5C000000,-0724,0977,10728,025.8,045.2,0.394,735.8,01.18,0.508
2014-01-25 03:49:00,2759E-4,5C000000,-0724,0978,10769,025.8,045.3,0.395,735.8,01.18,0.508
2014-01-25 03:50:00,3478E-4,5C000000,-0724,0977,10523,025.8,045.3,0.394,735.8,01.18,0.508
2014-01-25 03:51:00,2980E-4,5C000000,-0724,0978,10668,025.8,045.3,0.395,735.8,01.18,0.508
2014-01-25 03:52:00,3240E-4,5C000000,-0724,0978,10666,025.8,045.2,0.394,735.8,01.18,0.508
2014-01-25 03:53:00,2861E-4,5C000000,-0724,0979,10827,025.8,045.3,0.395,735.8,01.18,0.508
2014-01-25 03:54:00,2733E-4,5C000000,-0724,0977,10763,025.8,045.3,0.394,735.8,01.18,0.508
2014-01-25 03:55:00,2827E-4,5C000000,-0724,0978,10860,025.8,045.2,0.394,735.8,01.18,0.508
2014-01-25 03:56:00,3350E-4,5C000000,-0724,0978,10679,025.8,045.2,0.395,735.8,01.18,0.508
2014-01-25 03:57:00,2833E-4,5C000000,-0724,0979,10805,025.8,045.2,0.394,735.8,01.18,0.508
2014-01-25 03:58:00,2872E-4,5C000000,-0724,0978,10612,025.8,045.3,0.395,735.8,01.18,0.508
2014-01-25 03:59:00,3335E-4,5C000000,-0724,0978,10852,025.8,045.2,0.394,735.8,01.18,0.508
2014-01-25 04:00:00,3719E-4,5C000000,-0724,0979,10799,025.8,045.2,0.395,735.9,01.18,0.508
2014-01-25 04:01:00,3530E-4,5C000000,-0724,0979,10813,025.8,045.3,0.394,735.8,01.18,0.508
2014-01-25 04:02:00,3408E-4,5C000000,-0724,0979,10881,025.8,045.3,0.395,735.8,01.18,0.508
2014-01-25 04:03:00,3603E-4,5C000000,-0724,0979,10739,025.8,045.3,0.394,735.8,01.18,0.508
2014-01-25 04:04:00,2381E-4,5C000000,-0724,0978,10597,025.8,045.3,0.395,735.8,01.18,0.508
2014-01-25 04:05:00,3773E-4,5C000000,-0724,0978,10782,025.8,045.2,0.394,735.7,01.18,0.508
2014-01-25 04:06:00,2912E-4,5C000000,-0724,0978,10654,025.8,045.3,0.395,735.8,01.18,0.508
2014-01-25 04:07:00,2543E-4,5C000000,-0724,0978,10810,025.8,045.3,0.395,735.7,01.18,0.508
2014-01-25 04:08:00,3811E-4,5C000000,-0724,0979,10743,025.8,045.3,0.394,735.8,01.18,0.508
2014-01-25 04:09:00,3202E-4,5C000000,-0724,0977,10693,025.8,045.3,0.395,735.9,01.18,0.508
2014-01-25 04:10:00,3674E-4,5C000000,-0724,0978,10748,025.8,045.3,0.394,735.8,01.18,0.508
2014-01-25 04:11:00,2925E-4,5C000000,-0724,0978,10615,025.8,045.3,0.395,735.9,01.18,0.508
2014-01-25 04:12:00,3615E-4,5C000000,-0724,0978,10794,025.8,045.2,0.394,735.8,01.18,0.508
2014-01-25 04:13:00,2231E-4,5C000000,-0724,0978,10753,025.8,045.3,0.395,735.9,01.18,0.508
2014-01-25 04:14:00,2704E-4,5C000000,-0724,0979,10839,025.8,045.2,0.394,735.8,01.18,0.508
2014-01-25 04:15:00,2817E-4,5C000000,-0724,0978,10835,025.8,045.2,0.395,735.9,01.18,0.508
2014-01-25 04:16:00,2615E-4,5C000000,-0724,0979,10891,025.8,045.3,0.394,735.9,01.18,0.508
2014-01-25 04:17:00,2932E-4,5C000000,-0724,0978,10780,025.8,045.3,0.394,735.8,01.18,0.508
2014-01-25 04:18:00,3287E-4,5C000000,-0724,0978,10672,025.8,045.3,0.395,735.9,01.18,0.508
2014-01-25 04:19:00,2582E-4,5C000000,-0724,0978,10754,025.8,045.3,0.394,735.9,01.18,0.508
2014-01-25 04:20:00,2973E-4,5C000000,-0724,0979,10891,025.8,045.3,0.395,735.9,01.18,0.508